Location: Newark
(5.0949°S, 42.8042°W)
Time: 05:54:13
(UTC+00:00)

Hubble Space Telescope - Pass Details

Date: 27 September 2019
Orbit: 536 x 540 km, 28.5° (Epoch: 17 October)

Event Time Altitude Azimuth Distance (km) Brightness Sun altitude
Exits shadow 08:14:49 - 310° (NW) 2,430 3.6 -6.7°
Reaches altitude 10° 08:16:31 10° 314° (NW) 1,774 3.0 -6.3°
Maximum altitude 08:20:30 51° 31° (NNE) 676 1.5 -5.3°
Drops below altitude 10° 08:24:31 10° 107° (ESE) 1,782 5.1 -4.3°
Sets 08:26:49 0° 112° (ESE) 2,676 6.0 -3.7°
